STARLINK-32252, 60442

Orbit data source: Space-Track

STARLINK-32252, 60442 is a payload satellite owned by SpaceX/Seattle (US) in LEO that was launched on Mon, 12 Aug 2024 UTC via an FALCON 9 launch vehicle from the Air Force Eastern Test Range (AFETR). Payload-class satellites include a variety of spacecraft equipped with specific instruments for various scientific and technological missions. These include communications satellites like Starlink; space stations such as the ISS; scientific satellites like the Hubble; Earth observation satellites from companies like Planet Labs, Umbra, and HawkEye 360; GPS; miniature CubeSats for education and research; and military/defense satellites.

Loading next visibility...
Identifier
60442, 2024-144T
Orbit
LEO
Country
Flag of USUS
Related business
Manufacturer
SpaceX/Seattle
Mission
Operational Commercial Communications
Bus & Motor
STARLINK V2M, Unknown motor
Mass
730 kg wet, ~700 kg dry
Launch date (UTC)
2024-08-12 (2 years ago)
Launch vehicle
FALCON 9
Launch site
Air Force Eastern Test Range (AFETR)
Object type
Payload
Rocket body
Debris
Shape & HBR
Box + 2 Pan, 17.7 m
Radar Cross Section
33.884 m², Large (>1 m²)

Expand to show TLE details & history
Last TLE update: 21 hours ago

TLE from 21 hours ago
0 STARLINK-32252
1 60442U 24144T   26170.96802254  .00001612  00000-0  58846-4 0  9998
2 60442  53.1608 100.2699 0001307 101.0362 259.0787 15.34401259105033
Epoch: 2026-06-19T23:13Z
TLE epoch observation values (Epoch: 2026-06-19T23:13:57.147Z)
Latitude
-0.00007°
Longitude
-156.40766°
Altitude
463.77 km
Speed
7.636 km/s
True Right ascension
06h 41m 04s
True Declination
0° 00' 00"
Sunlit
Object was in daylight at epoch
Visualization orbit readout
Latitude
Unknown
Longitude
Unknown
Altitude
Unknown
Speed
Unknown
Apparent Right ascension
Unknown
Apparent Declination
Unknown
Sunlit
N/A
Visualization observer readout
Local Sidereal Time
07:14:18
Azimuth
Unknown
Elevation
Unknown
Doppler factor
Unknown
Orbital elements
Apogee altitude
463.85 km
Perigee altitude
462.062 km
Semi-major axis
6,841.093 km
Eccentricity
0.00013
Inclination
53.1608°
RAAN
100.2699°
Arg. of periapsis
101.0362°
True anomaly
259.06399°
Mean anomaly
259.0787°
Eccentric anomaly
259.07135°
Mean motion
3.83579 °/min
Orbital period
93.85 mins
BSTAR
0.000058846
Loading maneuver chart data...
Computing Atmospheric mass density...
Loading historical data...
Loading historical data...
Loading historical data...
Loading historical data...
Loading historical data...
Loading historical data...
Loading historical data...

Documentation

Showing up to 5 results
|